Погода в Тайынше

Казахстан     53°51′09″N   69°46′57″E
темп.,
°C
ветер,
м/с
пор.,
м/с
влажн.,
%
обл.,
%
осадки,
мм/ч
давл.,
гПа
погр.,
м
2 марта, вт
вт200:00−19з349888 0.1 101752
03:00−20зюз349991 0.0 101746
06:00−21з339783 0.0 101851
09:00−18зюз2497100 0.1 1017156
12:00−15юз249196 0.2 1016259
15:00−12зюз2490100 0.0 1015388
18:00−13юз229395 0.1 101520
21:00−15юз449375 0.0 101555
3 марта, ср
ср300:00−16ююз499357 0.0 1015150
03:00−17ююз511910 0.0 1015253
06:00−18ююз613880 0.0 1015319
09:00−17ююз7148870 0.0 1014352
12:00−12юз8149082 0.1 1013508
15:00−8юз91591100 0.3 1012693
18:00−6юз91689100 0.7 1011805
21:00−5юз81684100 0.1 1010751
4 марта, чт
чт400:00−3юз71586100 0.1 1009751
03:00−3юз71586100 0.0 1007662
06:00−2ююз71586100 0.0 1006667
09:00−1ююз81588100 0.0 1005888
12:000юз91584100 0.0 10041068
15:00+1ююз81485100 0.0 10031145
18:000юз81393100 0.3 1002901
21:00−2юз71488100 0.0 1003663
5 марта, пт
пт500:00−5з7138698 0.2 1006501
03:00−9зюз6139078 0.0 1008342
06:00−12юз6148939 0.0 1012282
09:00−11юз816840 0.0 1013346
12:00−6юз11188150 0.0 1012850
15:00−6юз121984100 0.1 1011959
18:00−4юз122082100 0.1 10111027
21:00−4юз122081100 0.0 10111052
6 марта, сб
сб600:00−4юз122082100 0.0 1011908
03:00−4юз111984100 0.0 1011827
06:00−4юз101884100 0.0 1011689
09:00−5юз9168799 0.0 1012643
12:00−2з7109499 0.2 1013739
15:00−3з598491 0.2 1015723
18:00−6з238995 0.2 101632
21:00−8ююз229282 0.0 101621